Terug naar catalogus

STARLINK-31706

ActiefCommunicatieVLEO
NORAD 59437·PAYLOAD·🇺🇸 United States

Gelanceerd Apr 7, 2024 vanaf Vandenberg Space Force Base

Loading…

Volgende Passages (komende 24 uur)

TLE

VersSource: CelesTrak SupGP

Epoch: Sep 14, 2026, 20:57 UTC

1 59437C 24065S   26257.87340278 -.00074542  00000+0 -22022-2 0  2576
2 59437  53.1575 123.6626 0001323  86.5109 295.7791 15.34430632    12

Volg STARLINK-31706 in realtime met AllMySat

Download on the App Store